Weather History for Viroqua, WI

Change the Weather History Date:

Tuesday, January 15, 2013

  Actual Average (KLSE) Record (KLSE)
Temperature  
Mean Temperature 22 °F 17 °F  
Max Temperature 30 °F 26 °F 48 °F (1933)
Min Temperature 14 °F 9 °F -32 °F (1888)
Degree Days  
Heating Degree Days 43 48  
Month to date heating degree days 716  
Since 1 July heating degree days 3560  
Cooling Degree Days 0 0  
Month to date cooling degree days 0  
Year to date cooling degree days 0  
Moisture  
Dew Point 13 °F    
Average Humidity 71    
Maximum Humidity 93    
Minimum Humidity 51    
Precipitation  
Precipitation 0.00 in 0.04 in 0.60 in (1953)
Month to date precipitation 0.52  
Year to date precipitation 0.52  
Snow  
Snow 0.00 in 0.40 in 3.40 in (1979)
Month to date snowfall 4.6  
Since 1 July snowfall 20.2  
Snow Depth -    
Sea Level Pressure  
Sea Level Pressure 30.19 in    
Wind  
Wind Speed 8 mph (SSW)    
Max Wind Speed 16 mph    
Max Gust Speed 21 mph    
Visibility 10 miles    
Events      
T = Trace of Precipitation, MM = Missing Value Source: NWS Daily Summary

Daily Weather History Graph

Daily Weather History Graph

Search for Another Location

Airport:

Trip Planner

Search our weather history database for the weather conditions in past years. The results will help you decide how hot, cold, wet, or windy it might be!

Date:

Astronomy

Jan. 15, 2013 Rise Set
Actual Time 7:33 AM CST 4:53 PM CST
Civil Twilight 7:01 AM CST 5:24 PM CST
Nautical Twilight 6:26 AM CST 6:00 PM CST
Astronomical Twilight 5:52 AM CST 6:34 PM CST
Moon 9:29 AM CST (1/15) 9:53 PM CST (1/15)
Length of Visible Light 10h 22m
Length of Day
9h 19m
Waxing Crescent, 19% of the Moon is Illuminated
Jan 15
Waxing Crescent
Jan 18
First Quarter
Jan 26
Full
Feb 3
Last Quarter
Feb 10
New

Hourly Weather History & Observations

Time (CST) Temp. Windchill Dew Point Humidity Pressure Visibility Wind Dir Wind Speed Gust Speed Precip Events Conditions
12:15 AM 14.0 °F 6.5 °F 10.4 °F 86% 30.33 in 10.0 mi South 4.6 mph - N/A   Clear
12:35 AM 14.0 °F 6.5 °F 10.4 °F 86% 30.33 in 10.0 mi South 4.6 mph - N/A   Clear
12:55 AM 14.0 °F 8.2 °F 10.4 °F 86% 30.32 in 10.0 mi South 3.5 mph - N/A   Clear
1:15 AM 14.0 °F - 10.4 °F 86% 30.32 in 10.0 mi Calm Calm - N/A   Clear
1:35 AM 14.0 °F - 12.2 °F 93% 30.32 in 10.0 mi Calm Calm - N/A   Clear
1:55 AM 14.0 °F 6.5 °F 10.4 °F 86% 30.32 in 10.0 mi South 4.6 mph - N/A   Clear
2:15 AM 14.0 °F 5.1 °F 10.4 °F 86% 30.32 in 10.0 mi SSW 5.8 mph - N/A   Clear
2:55 AM 14.0 °F 3.9 °F 10.4 °F 86% 30.32 in 10.0 mi South 6.9 mph - N/A   Clear
3:15 AM 14.0 °F 3.9 °F 10.4 °F 86% 30.31 in 10.0 mi South 6.9 mph - N/A   Clear
3:55 AM 14.0 °F 2.9 °F 10.4 °F 86% 30.30 in 10.0 mi South 8.1 mph - N/A   Clear
4:35 AM 14.0 °F 2.0 °F 10.4 °F 86% 30.29 in 10.0 mi South 9.2 mph - N/A   Clear
4:55 AM 14.0 °F 2.0 °F 10.4 °F 86% 30.28 in 10.0 mi SSW 9.2 mph - N/A   Clear
5:15 AM 14.0 °F 2.0 °F 10.4 °F 86% 30.28 in 10.0 mi SSW 9.2 mph - N/A   Clear
5:35 AM 14.0 °F 1.2 °F 10.4 °F 86% 30.27 in 10.0 mi SSW 10.4 mph - N/A   Clear
5:55 AM 14.0 °F 2.0 °F 10.4 °F 86% 30.27 in 10.0 mi SSW 9.2 mph - N/A   Clear
6:15 AM 14.0 °F 2.9 °F 10.4 °F 86% 30.27 in 10.0 mi SSW 8.1 mph - N/A   Clear
6:35 AM 14.0 °F 3.9 °F 10.4 °F 86% 30.27 in 10.0 mi SSW 6.9 mph - N/A   Clear
6:55 AM 14.0 °F 3.9 °F 10.4 °F 86% 30.27 in 10.0 mi SSW 6.9 mph - N/A   Clear
7:15 AM 14.0 °F 6.5 °F 10.4 °F 86% 30.27 in 10.0 mi SSW 4.6 mph - N/A   Clear
7:35 AM 14.0 °F 5.1 °F 10.4 °F 86% 30.28 in 10.0 mi SSW 5.8 mph - N/A   Clear
7:55 AM 14.0 °F 5.1 °F 10.4 °F 86% 30.27 in 10.0 mi South 5.8 mph - N/A   Clear
8:15 AM 15.8 °F 6.1 °F 10.4 °F 79% 30.27 in 10.0 mi South 6.9 mph - N/A   Clear
8:55 AM 19.4 °F 10.4 °F 12.2 °F 74% 30.27 in 10.0 mi SSW 6.9 mph - N/A   Clear
9:15 AM 19.4 °F 7.9 °F 14.0 °F 80% 30.27 in 10.0 mi SSW 10.4 mph - N/A   Clear
9:35 AM 21.2 °F 9.5 °F 14.0 °F 74% 30.27 in 10.0 mi SSW 11.5 mph - N/A   Scattered Clouds
9:55 AM 21.2 °F 8.9 °F 14.0 °F 74% 30.27 in 10.0 mi SSW 12.7 mph - N/A   Scattered Clouds
10:15 AM 23.0 °F 10.6 °F 14.0 °F 68% 30.27 in 10.0 mi SSW 13.8 mph - N/A   Clear
10:35 AM 24.8 °F 13.4 °F 14.0 °F 64% 30.26 in 10.0 mi SSW 12.7 mph - N/A   Clear
10:55 AM 26.6 °F 16.2 °F 14.0 °F 59% 30.25 in 10.0 mi SSW 11.5 mph - N/A   Clear
11:15 AM 26.6 °F 15.7 °F 15.8 °F 64% 30.25 in 10.0 mi SSW 12.7 mph - N/A   Clear
11:35 AM 28.4 °F 18.0 °F 14.0 °F 55% 30.23 in 10.0 mi SW 12.7 mph - N/A   Clear
11:55 AM 28.4 °F 18.5 °F 15.8 °F 59% 30.22 in 10.0 mi SW 11.5 mph 19.6 mph N/A   Clear
12:15 PM 28.4 °F 17.0 °F 14.0 °F 55% 30.22 in 10.0 mi SSW 15.0 mph - N/A   Clear
12:35 PM 30.2 °F 19.8 °F 14.0 °F 51% 30.21 in 10.0 mi SW 13.8 mph - N/A   Clear
12:55 PM 30.2 °F 20.2 °F 15.8 °F 55% 30.20 in 10.0 mi SW 12.7 mph - N/A   Clear
1:15 PM 30.2 °F 20.2 °F 15.8 °F 55% 30.19 in 10.0 mi SSW 12.7 mph 19.6 mph N/A   Clear
1:35 PM 30.2 °F 20.8 °F 15.8 °F 55% 30.18 in 10.0 mi SSW 11.5 mph - N/A   Clear
1:55 PM 30.2 °F 19.8 °F 14.0 °F 51% 30.18 in 10.0 mi SW 13.8 mph - N/A   Clear
2:35 PM 30.2 °F 19.8 °F 14.0 °F 51% 30.17 in 10.0 mi SW 13.8 mph - N/A   Clear
2:55 PM 30.2 °F 19.8 °F 14.0 °F 51% 30.17 in 10.0 mi SSW 13.8 mph - N/A   Clear
3:15 PM 30.2 °F 18.9 °F 14.0 °F 51% 30.16 in 10.0 mi SSW 16.1 mph 20.7 mph N/A   Clear
3:35 PM 30.2 °F 20.2 °F 15.8 °F 55% 30.16 in 10.0 mi SW 12.7 mph - N/A   Clear
3:55 PM 30.2 °F 20.8 °F 15.8 °F 55% 30.16 in 10.0 mi SSW 11.5 mph - N/A   Clear
4:15 PM 28.4 °F 18.0 °F 14.0 °F 55% 30.15 in 10.0 mi SSW 12.7 mph 20.7 mph N/A   Clear
4:35 PM 28.4 °F 19.7 °F 14.0 °F 55% 30.14 in 10.0 mi South 9.2 mph 17.3 mph N/A   Clear
4:55 PM 26.6 °F 17.5 °F 15.8 °F 64% 30.14 in 10.0 mi SSW 9.2 mph - N/A   Clear
5:15 PM 26.6 °F 18.2 °F 15.8 °F 64% 30.14 in 10.0 mi South 8.1 mph - N/A   Clear
5:35 PM 26.6 °F 17.5 °F 15.8 °F 64% 30.13 in 10.0 mi SSW 9.2 mph - N/A   Clear
5:55 PM 26.6 °F 16.8 °F 14.0 °F 59% 30.13 in 10.0 mi SSW 10.4 mph - N/A   Clear
6:15 PM 24.8 °F 15.3 °F 15.8 °F 69% 30.12 in 10.0 mi South 9.2 mph - N/A   Clear
6:35 PM 24.8 °F 16.1 °F 15.8 °F 69% 30.11 in 10.0 mi South 8.1 mph - N/A   Clear
6:55 PM 23.0 °F 13.1 °F 14.0 °F 68% 30.10 in 10.0 mi SSW 9.2 mph - N/A   Clear
7:15 PM 23.0 °F 12.4 °F 14.0 °F 68% 30.10 in 10.0 mi SSW 10.4 mph - N/A   Clear
7:35 PM 23.0 °F 11.1 °F 15.8 °F 74% 30.09 in 10.0 mi SSW 12.7 mph - N/A   Clear
7:55 PM 23.0 °F 11.7 °F 14.0 °F 68% 30.08 in 10.0 mi SSW 11.5 mph - N/A   Clear
8:15 PM 23.0 °F 12.4 °F 14.0 °F 68% 30.07 in 10.0 mi SSW 10.4 mph - N/A   Clear
8:35 PM 23.0 °F 12.4 °F 14.0 °F 68% 30.06 in 10.0 mi SSW 10.4 mph - N/A   Clear
8:55 PM 23.0 °F 11.7 °F 14.0 °F 68% 30.05 in 10.0 mi SSW 11.5 mph - N/A   Clear
9:15 PM 23.0 °F 10.6 °F 14.0 °F 68% 30.05 in 10.0 mi SSW 13.8 mph - N/A   Clear
9:35 PM 23.0 °F 10.1 °F 14.0 °F 68% 30.03 in 10.0 mi SSW 15.0 mph - N/A   Clear
9:55 PM 23.0 °F 10.6 °F 14.0 °F 68% 30.03 in 10.0 mi SSW 13.8 mph - N/A   Clear
10:15 PM 21.2 °F 8.3 °F 14.0 °F 74% 30.01 in 10.0 mi SSW 13.8 mph - N/A   Clear
10:55 PM 21.2 °F 8.3 °F 14.0 °F 74% 29.99 in 10.0 mi SSW 13.8 mph - N/A   Clear
11:15 PM 21.2 °F 8.9 °F 14.0 °F 74% 29.98 in 10.0 mi SSW 12.7 mph - N/A   Clear
11:35 PM 21.2 °F 9.5 °F 14.0 °F 74% 29.98 in 10.0 mi SSW 11.5 mph - N/A   Clear
11:55 PM 19.4 °F 6.6 °F 12.2 °F 74% 29.95 in 10.0 mi SSW 12.7 mph - N/A   Clear